TimeCST,TemperatureF,Dew PointF,Humidity,Sea Level PressureIn,VisibilityMPH,Wind Direction,Wind SpeedMPH,Gust SpeedMPH,PrecipitationIn,Events,Conditions,WindDirDegrees,DateUTC
12:15 AM,30.2,12.2,47,30.36,10.0,SE,5.8,-,N/A,,Overcast,140,2013-11-25 06:15:00
12:35 AM,30.2,10.4,44,30.36,10.0,SSE,8.1,-,N/A,,Overcast,150,2013-11-25 06:35:00
12:55 AM,30.2,10.4,44,30.35,10.0,SE,5.8,-,N/A,,Overcast,140,2013-11-25 06:55:00
1:15 AM,30.2,10.4,44,30.34,10.0,SSE,5.8,-,N/A,,Overcast,150,2013-11-25 07:15:00
1:35 AM,30.2,10.4,44,30.33,10.0,SSE,6.9,-,N/A,,Overcast,150,2013-11-25 07:35:00
1:55 AM,30.2,10.4,44,30.34,10.0,SSE,6.9,-,N/A,,Overcast,160,2013-11-25 07:55:00
2:15 AM,32.0,10.4,41,30.34,10.0,SSE,6.9,-,N/A,,Overcast,160,2013-11-25 08:15:00
2:35 AM,30.2,10.4,44,30.33,10.0,SE,6.9,-,N/A,,Overcast,140,2013-11-25 08:35:00
2:55 AM,30.2,10.4,44,30.31,10.0,SE,5.8,-,N/A,,Overcast,140,2013-11-25 08:55:00
3:15 AM,30.2,10.4,44,30.31,10.0,SE,4.6,-,N/A,,Overcast,140,2013-11-25 09:15:00
3:35 AM,30.2,10.4,44,30.29,10.0,SE,6.9,-,N/A,,Overcast,130,2013-11-25 09:35:00
3:55 AM,30.2,10.4,44,30.30,10.0,SSE,6.9,-,N/A,,Overcast,150,2013-11-25 09:55:00
4:15 AM,30.2,10.4,44,30.28,10.0,SE,8.1,-,N/A,,Overcast,140,2013-11-25 10:15:00
4:35 AM,32.0,12.2,44,30.29,10.0,South,4.6,-,N/A,,Overcast,170,2013-11-25 10:35:00
4:55 AM,32.0,12.2,44,30.28,10.0,South,3.5,-,N/A,,Overcast,170,2013-11-25 10:55:00
5:15 AM,32.0,12.2,44,30.29,10.0,South,4.6,-,N/A,,Overcast,170,2013-11-25 11:15:00
5:35 AM,32.0,12.2,44,30.27,10.0,SSE,5.8,-,N/A,,Overcast,150,2013-11-25 11:35:00
5:55 AM,32.0,12.2,44,30.27,10.0,SE,6.9,-,N/A,,Overcast,140,2013-11-25 11:55:00
6:15 AM,32.0,12.2,44,30.26,10.0,SSE,6.9,-,N/A,,Overcast,150,2013-11-25 12:15:00
6:35 AM,32.0,12.2,44,30.26,10.0,SSE,5.8,-,N/A,,Overcast,150,2013-11-25 12:35:00
6:55 AM,32.0,12.2,44,30.27,10.0,SSE,9.2,-,N/A,,Overcast,160,2013-11-25 12:55:00
7:15 AM,32.0,12.2,44,30.27,10.0,SSE,8.1,-,N/A,,Overcast,150,2013-11-25 13:15:00
7:35 AM,32.0,14.0,48,30.28,10.0,SSE,6.9,-,N/A,,Overcast,160,2013-11-25 13:35:00
7:55 AM,32.0,14.0,48,30.28,10.0,SSE,6.9,-,N/A,,Overcast,160,2013-11-25 13:55:00
8:15 AM,32.0,14.0,48,30.27,10.0,South,5.8,-,N/A,,Overcast,180,2013-11-25 14:15:00
8:35 AM,32.0,15.8,51,30.28,10.0,South,6.9,-,N/A,,Overcast,170,2013-11-25 14:35:00
8:55 AM,32.0,15.8,51,30.28,10.0,SSE,8.1,-,N/A,,Overcast,150,2013-11-25 14:55:00
9:15 AM,32.0,15.8,51,30.28,10.0,South,6.9,-,N/A,,Overcast,180,2013-11-25 15:15:00
9:35 AM,32.0,17.6,55,30.28,10.0,South,6.9,-,N/A,,Overcast,170,2013-11-25 15:35:00
9:55 AM,32.0,17.6,55,30.27,10.0,South,5.8,-,N/A,,Overcast,180,2013-11-25 15:55:00
10:15 AM,32.0,17.6,55,30.26,10.0,South,4.6,-,N/A,,Overcast,190,2013-11-25 16:15:00
10:35 AM,32.0,17.6,55,30.28,10.0,South,6.9,-,N/A,,Overcast,190,2013-11-25 16:35:00
10:55 AM,32.0,19.4,60,30.27,10.0,South,9.2,-,N/A,,Overcast,190,2013-11-25 16:55:00
11:15 AM,32.0,21.2,64,30.26,7.0,South,6.9,-,N/A,Snow,Light Snow,180,2013-11-25 17:15:00
11:35 AM,32.0,23.0,69,30.25,10.0,South,6.9,-,N/A,,Overcast,180,2013-11-25 17:35:00
11:55 AM,32.0,21.2,64,30.24,10.0,SW,5.8,-,N/A,,Overcast,230,2013-11-25 17:55:00
12:15 PM,32.0,23.0,69,30.23,3.0,SW,5.8,-,N/A,Snow,Light Snow,230,2013-11-25 18:15:00
12:35 PM,32.0,23.0,69,30.23,10.0,WSW,4.6,-,N/A,Snow,Light Snow,250,2013-11-25 18:35:00
12:55 PM,32.0,24.8,75,30.23,10.0,South,8.1,-,N/A,,Overcast,190,2013-11-25 18:55:00
1:15 PM,32.0,26.6,80,30.22,10.0,South,4.6,-,N/A,,Overcast,170,2013-11-25 19:15:00
1:35 PM,32.0,26.6,80,30.21,10.0,SW,4.6,-,N/A,,Overcast,220,2013-11-25 19:35:00
1:55 PM,32.0,26.6,80,30.20,10.0,Calm,Calm,-,N/A,,Overcast,0,2013-11-25 19:55:00
2:15 PM,32.0,26.6,80,30.19,10.0,Calm,Calm,-,N/A,,Overcast,0,2013-11-25 20:15:00
2:35 PM,32.0,26.6,80,30.19,10.0,SW,5.8,-,N/A,,Overcast,220,2013-11-25 20:35:00
2:55 PM,32.0,26.6,80,30.19,10.0,WSW,4.6,-,N/A,,Overcast,250,2013-11-25 20:55:00
3:15 PM,32.0,26.6,80,30.19,10.0,West,4.6,-,N/A,,Overcast,260,2013-11-25 21:15:00
3:35 PM,32.0,26.6,80,30.20,10.0,WNW,3.5,-,N/A,,Overcast,290,2013-11-25 21:35:00
3:55 PM,33.8,26.6,75,30.20,10.0,SSW,5.8,-,N/A,,Overcast,210,2013-11-25 21:55:00
4:15 PM,33.8,26.6,75,30.20,10.0,South,5.8,-,N/A,,Overcast,170,2013-11-25 22:15:00
4:35 PM,33.8,26.6,75,30.21,10.0,Calm,Calm,-,N/A,,Overcast,0,2013-11-25 22:35:00
4:55 PM,33.8,26.6,75,30.20,10.0,Calm,Calm,-,N/A,,Overcast,0,2013-11-25 22:55:00
5:15 PM,33.8,26.6,75,30.19,10.0,Calm,Calm,-,N/A,,Overcast,0,2013-11-25 23:15:00
5:35 PM,33.8,26.6,75,30.20,10.0,Calm,Calm,-,N/A,,Overcast,0,2013-11-25 23:35:00
5:55 PM,33.8,26.6,75,30.21,10.0,Calm,Calm,-,N/A,,Overcast,0,2013-11-25 23:55:00
6:15 PM,33.8,26.6,75,30.21,10.0,SSE,3.5,-,N/A,,Overcast,160,2013-11-26 00:15:00
6:35 PM,33.8,26.6,75,30.21,10.0,Calm,Calm,-,N/A,,Overcast,0,2013-11-26 00:35:00
6:55 PM,33.8,26.6,75,30.20,10.0,Calm,Calm,-,N/A,,Overcast,0,2013-11-26 00:55:00
7:15 PM,33.8,28.4,81,30.19,10.0,Calm,Calm,-,N/A,,Overcast,0,2013-11-26 01:15:00
7:35 PM,33.8,26.6,75,30.19,10.0,Calm,Calm,-,N/A,,Overcast,0,2013-11-26 01:35:00
7:55 PM,33.8,26.6,75,30.18,10.0,Calm,Calm,-,N/A,,Overcast,0,2013-11-26 01:55:00
8:15 PM,33.8,26.6,75,30.18,10.0,Calm,Calm,-,N/A,,Overcast,0,2013-11-26 02:15:00
8:35 PM,33.8,28.4,81,30.18,10.0,Calm,Calm,-,N/A,,Overcast,0,2013-11-26 02:35:00
8:55 PM,33.8,28.4,81,30.19,10.0,Calm,Calm,-,N/A,,Overcast,0,2013-11-26 02:55:00
9:15 PM,33.8,28.4,81,30.19,10.0,Calm,Calm,-,N/A,,Overcast,0,2013-11-26 03:15:00
9:35 PM,33.8,28.4,81,30.19,10.0,Calm,Calm,-,N/A,,Overcast,0,2013-11-26 03:35:00
9:55 PM,33.8,28.4,81,30.19,10.0,SSW,3.5,-,N/A,,Overcast,200,2013-11-26 03:55:00
10:15 PM,33.8,28.4,81,30.19,10.0,SW,3.5,-,N/A,,Overcast,220,2013-11-26 04:15:00
10:35 PM,33.8,28.4,81,30.19,10.0,Calm,Calm,-,N/A,,Overcast,0,2013-11-26 04:35:00
10:55 PM,33.8,28.4,81,30.19,10.0,Calm,Calm,-,N/A,,Overcast,0,2013-11-26 04:55:00
11:15 PM,33.8,28.4,81,30.17,10.0,Calm,Calm,-,N/A,,Overcast,0,2013-11-26 05:15:00
11:35 PM,33.8,28.4,81,30.17,10.0,West,4.6,-,N/A,,Overcast,280,2013-11-26 05:35:00
11:55 PM,33.8,28.4,81,30.16,10.0,WSW,3.5,-,N/A,,Overcast,250,2013-11-26 05:55:00